Location: Rowland
(34.5359°N, 79.2929°W)
Time: 13:40:26
(UTC+00:00)

SR - Pass Details

Date: 12 October 2022
Orbit: 577 x 875 km, 66.7° (Epoch: 28 November)

Event Time Altitude Azimuth Distance (km) Brightness Sun altitude
Rises 07:51:01 0° 348° (NNW) 3,272 - -43.0°
Reaches altitude 10° 07:54:14 10° 6° (N) 2,280 - -42.4°
Maximum altitude 07:57:49 19° 50° (NE) 1,699 - -41.7°
Exits shadow 08:01:09 10° 94° (E) 2,121 ? -41.1°
Drops below altitude 10° 08:01:12 10° 94° (E) 2,133 ? -41.1°
Sets 08:04:04 0° 113° (ESE) 2,986 ? -40.5°
